Flag for Angola Weather past 2 weeks in Cabinda, Angola

Now
79 °F

Passing clouds.


Feels Like: 82 °F
Forecast: 76 / 83 °F
Wind: 8 mph from Southwest

Location: Pointe Airport-Noire

Current Time: Oct 26, 2014 at 1:05:11 AM

Latest Report: Oct 26, 2014 at 12:00 AM


Visibility: N/A

Pressure: 29.89 "Hg

Humidity: 84%

Dew point: 73 °F

Location of CabindaLocation

Historic Weather in Cabinda — Graph

°F

Cabinda temperature yesterday

Maximum temperature yesterday: 82 °F (at 2:00 PM)
Minimum temperature yesterday: 75 °F (at 6:00 AM)
Average temperature yesterday: 80 °F

Past Weeks' High & Low Weather Summary

 TemperatureHumidityPressure
High84 °F (Oct 14, 3:00 PM)100% (Oct 16, 6:00 AM)29.98 "Hg (Oct 16, 6:00 AM)
Low75 °F (Oct 11, 6:00 AM)66% (Oct 12, 2:00 PM)29.80 "Hg (Oct 11, 4:00 PM)
Average79 °F81%29.89 "Hg
* Reported Oct 10 11:00 PM — Oct 25 11:00 PM, Cabinda, Weather by CustomWeather, © 2014

Note: Actual official high and low records may vary slightly from our data, if they occured in-between our weather recording intervals... More about our weather records

Advertising

Cabinda weather history for previous 24 hours

 ConditionsComfort  
Time TempWeatherWind HumidityBarometerVisibility
11:00 PM
Oct 25
79 °FPassing clouds.7 mph84%29.92 "HgN/A
10:00 PM79 °FPassing clouds.7 mph84%29.89 "HgN/A
9:00 PM79 °FPartly cloudy.8 mph84%29.89 "HgN/A
8:00 PM79 °FPartly cloudy.7 mph84%29.86 "HgN/A
7:00 PM79 °FPassing clouds.7 mph84%29.83 "HgN/A
6:00 PM81 °FBroken clouds.9 mph79%29.80 "HgN/A
5:00 PM81 °FScattered clouds.13 mph79%29.80 "HgN/A
4:00 PM82 °FBroken clouds.13 mph74%29.80 "HgN/A
3:00 PM82 °FBroken clouds.12 mph74%29.80 "HgN/A
2:00 PM82 °FScattered clouds.12 mph74%29.83 "HgN/A
1:00 PM81 °FBroken clouds.9 mph79%29.86 "HgN/A
12:00 PM81 °FMore clouds than sun.10 mph79%29.89 "HgN/A
11:00 AM81 °FDrizzle. Cloudy.12 mph79%29.89 "HgN/A
10:00 AM81 °FMore clouds than sun.12 mph79%29.89 "HgN/A
9:00 AM81 °FBroken clouds.10 mph74%29.89 "HgN/A
8:00 AM79 °FPartly sunny.9 mph84%29.89 "HgN/A
7:00 AM77 °FScattered clouds.2 mph89%29.86 "Hg4 mi
6:00 AM75 °FBroken clouds.2 mph94%29.86 "Hg4 mi
5:00 AM79 °FMostly cloudy.3 mph84%29.86 "Hg5 mi
4:00 AM79 °FMostly cloudy.5 mph79%29.86 "Hg5 mi
3:00 AM79 °FMostly cloudy.2 mph79%29.86 "Hg5 mi
2:00 AM79 °FMostly cloudy.8 mph79%29.86 "Hg5 mi
1:00 AM79 °FMostly cloudy.8 mph84%29.89 "HgN/A
Weather by CustomWeather, © 2014

See weather overviewHow to use our weather pages